Weather History for Lincoln, NE

Change the Weather History Date:

Wednesday, October 26, 2011

  Actual Average Record
Temperature  
Mean Temperature 48 °F 49 °F  
Max Temperature 51 °F 62 °F 86 °F (1927)
Min Temperature 44 °F 37 °F 19 °F (1997)
Degree Days  
Heating Degree Days 17 16  
Month to date heating degree days 224 294  
Since 1 July heating degree days 381 392  
Cooling Degree Days 0 0  
Month to date cooling degree days 37 12  
Year to date cooling degree days 1296 1170  
Moisture  
Dew Point 37 °F    
Average Humidity 67    
Maximum Humidity 82    
Minimum Humidity 52    
Precipitation  
Precipitation T in 0.06 in 1.57 in (1901)
Month to date precipitation 0.93 1.71  
Year to date precipitation 25.93 26.31  
Snow  
Snow 0.00 in 0.10 in - ()
Month to date snowfall 0.0 0.5  
Since 1 July snowfall 0.0 0.5  
Snow Depth 0.00 in    
Sea Level Pressure  
Sea Level Pressure 30.12 in    
Wind  
Wind Speed 12 mph (NNW)    
Max Wind Speed 20 mph    
Max Gust Speed 24 mph    
Visibility 10 miles    
Events      
T = Trace of Precipitation, MM = Missing Value Source: NWS Daily Summary

Daily Weather History Graph

Daily Weather History Graph

Search for Another Location

Airport:

Trip Planner

Search our weather history database for the weather conditions in past years. The results will help you decide how hot, cold, wet, or windy it might be!

Date:

Astronomy

Oct. 26, 2011 Rise Set
Actual Time 7:50 AM CDT 6:31 PM CDT
Civil Twilight 7:22 AM CDT 6:59 PM CDT
Nautical Twilight 6:50 AM CDT 7:31 PM CDT
Astronomical Twilight 6:18 AM CDT 8:03 PM CDT
Moon 7:39 AM CDT (10/26) 6:13 PM CDT (10/26)
Length of Visible Light 11h 36m
Length of Day
10h 40m
Waning Crescent, 0% of the Moon is Illuminated
Oct 26
Waning Crescent
Oct 26
New
Nov 2
First Quarter
Nov 10
Full
Nov 18
Last Quarter

Hourly Weather History & Observations

Time (CDT) Temp. Windchill Dew Point Humidity Pressure Visibility Wind Dir Wind Speed Gust Speed Precip Events Conditions
12:54 AM 46.0 °F 40.2 °F 35.1 °F 66% 30.05 in 10.0 mi North 12.7 mph - N/A   Clear
1:54 AM 46.9 °F - 37.0 °F 68% 30.08 in 10.0 mi North 12.7 mph - N/A   Clear
2:54 AM 46.9 °F - 37.9 °F 71% 30.08 in 10.0 mi North 11.5 mph - N/A   Clear
3:54 AM 46.9 °F - 37.9 °F 71% 30.06 in 10.0 mi NNW 10.4 mph - N/A   Clear
4:54 AM 46.9 °F - 37.9 °F 71% 30.07 in 10.0 mi North 13.8 mph - N/A   Clear
5:54 AM 46.9 °F - 39.0 °F 74% 30.07 in 10.0 mi North 13.8 mph - N/A   Clear
6:54 AM 46.9 °F - 39.9 °F 77% 30.08 in 10.0 mi North 10.4 mph - N/A   Scattered Clouds
7:54 AM 48.0 °F - 39.9 °F 74% 30.13 in 10.0 mi NW 9.2 mph - N/A   Overcast
8:54 AM 46.9 °F - 41.0 °F 80% 30.15 in 10.0 mi NNW 12.7 mph - 0.00 in   Overcast
9:54 AM 46.0 °F 40.2 °F 39.9 °F 79% 30.14 in 10.0 mi North 12.7 mph - N/A   Overcast
10:54 AM 46.9 °F - 39.0 °F 74% 30.15 in 10.0 mi North 13.8 mph - N/A   Overcast
11:13 AM 46.4 °F 40.4 °F 39.2 °F 76% 30.15 in 10.0 mi NNW 13.8 mph - N/A   Overcast
11:54 AM 46.9 °F - 37.9 °F 71% 30.17 in 10.0 mi NNW 18.4 mph - N/A   Overcast
12:21 PM 48.2 °F - 37.4 °F 66% 30.15 in 10.0 mi North 16.1 mph - N/A   Overcast
12:54 PM 48.9 °F - 37.0 °F 64% 30.17 in 10.0 mi North 15.0 mph - N/A   Overcast
1:54 PM 50.0 °F - 36.0 °F 59% 30.13 in 10.0 mi North 13.8 mph - N/A   Overcast
2:54 PM 50.0 °F - 36.0 °F 59% 30.11 in 10.0 mi North 12.7 mph - N/A   Overcast
3:54 PM 50.0 °F - 35.1 °F 57% 30.12 in 10.0 mi North 11.5 mph - N/A   Overcast
4:54 PM 50.0 °F - 34.0 °F 54% 30.12 in 10.0 mi North 11.5 mph - N/A   Overcast
5:54 PM 48.9 °F - 34.0 °F 56% 30.12 in 10.0 mi North 12.7 mph - N/A   Scattered Clouds
6:54 PM 48.0 °F - 34.0 °F 58% 30.14 in 10.0 mi North 10.4 mph - N/A   Overcast
7:54 PM 46.9 °F - 34.0 °F 61% 30.14 in 10.0 mi North 11.5 mph - N/A   Mostly Cloudy
8:54 PM 46.0 °F 41.9 °F 34.0 °F 63% 30.15 in 10.0 mi NNW 8.1 mph - N/A   Mostly Cloudy
9:54 PM 45.0 °F 39.7 °F 33.1 °F 63% 30.16 in 10.0 mi NNW 10.4 mph - N/A   Mostly Cloudy
10:54 PM 45.0 °F 41.2 °F 33.1 °F 63% 30.16 in 10.0 mi NNW 6.9 mph - N/A   Scattered Clouds
11:54 PM 44.6 °F 42.2 °F 33.8 °F 66% 30.15 in 10.0 mi NW 4.6 mph - N/A   Overcast